Aérodrome :
LOGIN :

S'inscrire | Disclaimer

   EN    FR    IT 

 










Légende :    VFR   VFR Marginal   IFR   IFR Intensif   IFR Très Intensif
Visi : 
Plafond : 
>= 8 km
>= 3000ft
5 à 8 km
1000 à 3000 ft
1500m à 5 km
500 à 1000 ft
800 à 1500m
200 à 500 ft
< 800m
< 200 ft
Symboles :   Orages  Brouillard  Fortes neiges  Fortes précipitations  Vent > 20 kt
SIGMETs :   Divers  Orages  Givrage  Turbulence  Onde Orograph.  Cendres Volcan.







- Altitude de l'aérodrome : 1548 ft


LKNA - Náměšť Air Base

DERNIER METAR :
  • 211100Z 08007KT 020V130 9999 BKN046 18/07 Q1019 NOSIG RMK BLU BLU

METARs EXPIRÉS :
  • 211000Z 06007KT 9999 SCT042 17/08 Q1019 NOSIG RMK BLU BLU
  • 210900Z 11008KT 040V170 9999 FEW039 17/08 Q1020 NOSIG

TAF TAF LKNA
Valide du 21 à 06h jusqu'au 22 à 06h UTC


210500Z 2106/2206 07008KT 9999 BKN030
BECMG 2110/2113 12014KT
BECMG 2121/2123 08004KT
Pas de NOTAMs connus pour ce terrain.



MET'MAP, la Météo Aéronautique d'un coup d'oeil ! - Copyright ORBIFLY Décembre 2007 - Disclaimer

ORBIFLY MET'MAP TEAM :

Programmation & Développement : Alexandra Zaïnal
Conception & Développement : Baudouin d'Aumeries
Co-Programmation & Développement : Marc-Olivier Méhu
Soutien technique & logistique : Manuel Goepfert

Contact : metmap@orbifly.com




SOURCES & CREDITS :

   NOAA